Regional Weather Roundup
Issued by NWS

Home | Current Version | Previous Version | Text Only | Print | Product List | Glossary On
Versions: 1 2 3 4 5 6 7 8 9 10 11 12 13 14 15 16 17 18 19 20 21 22 23 24 25 26 27 28 29 30 31 32 33 34 35 36 37 38 39 40 41 42 43 44 45 46 47 48 49 50
000
ASUS46 KLOX 220012
RWRCA

SOUTHERN CALIFORNIA WEATHER ROUNDUP
NATIONAL WEATHER SERVICE OXNARD CALIFORNIA
400 PM PST FRI NOV 21 2014

NOTE: "FAIR" INDICATES FEW OR NO CLOUDS BELOW 12,000 FEET WITH NO
SIGNIFICANT WEATHER AND/OR OBSTRUCTIONS TO VISIBILITY.

  -  STATIONS PRECEEDED BY AN ASTERISK (*) ARE NOT NWS OR FAA
     STATIONS AND ARE NOT SUBJECT TO NWS AND FAA QUALITY CONTROL.

CAZ041-042-087-220100-
LA AND ORANGE COUNTY COASTAL AREAS


CITY           SKY/WX    TMP DP  RH WIND       PRES   REMARKS
L.A. DOWNTOWN  CLEAR     69  45  41 SW3       29.94R
L.A. AIRPORT   PTCLDY    67  53  61 W10       29.95S
LONG BEACH     CLEAR     69  48  47 NW10      29.95R

CITY           SKY/WX    TMP DP  RH WIND       PRES   REMARKS
AVALON           N/A     64 N/A N/A MISG        N/A
FULLERTON      CLEAR     71  47  42 VRB5      29.94R
*GETTY CENTER    N/A     66  43  42 SW7         N/A
HAWTHORNE      CLEAR     68  50  52 W8        29.95S
*LEO CARRILLO    N/A     68  49  50 W14G26      N/A
*LOS ALAMITOS  PTCLDY    69  51  51 SW10      29.95R
*REDONDO BEACH   N/A     67  54  62 CALM      29.95R
SANTA ANA      PTCLDY    70  49  47 W6        29.96R
STA MONICA APT CLEAR     68  53  58 SW6       29.94S
*UCLA            N/A     68  45  42 S6        29.92R

$$

CAZ547-548-048-220100-
LA COUNTY VALLEYS AND INLAND EMPIRE


CITY           SKY/WX    TMP DP  RH WIND       PRES   REMARKS
BURBANK        CLEAR     69  42  37 S7        29.94R
VAN NUYS       CLEAR     71  39  31 NW5       29.94R

CITY           SKY/WX    TMP DP  RH WIND       PRES   REMARKS
CORONA AIRPORT CLEAR     68  48  48 W10G16    29.95R
*CHATSWORTH      N/A     69  46  43 W9        29.93R
CHINO          PTCLDY    69  44  40 W9        29.95R
MARCH AFB      CLEAR     67  42  41 NW7       29.95R
*NORTHRIDGE      N/A     70  39  32 W3G9        N/A
ONTARIO        PTCLDY    68  45  43 W9        29.94R
POMONA         CLEAR     66  45  45 W7        29.98R
RIVERSIDE      CLEAR     69  45  41 W8        29.94R
SAN BERNARDINO PTCLDY    66  41  39 SW9       29.94R
*SAN GABRIEL     N/A     69  43  39 CALM      29.92R
*SAN RAFAEL HI   N/A     67  41  38 E7          N/A
*SAUGUS          N/A     62  37  39 NW18        N/A
*WHITEMAN AP   NOT AVBL
*WOODLAND HILL   N/A     70  39  32 W5          N/A

$$

CAZ054-055-220100-
LA AND SAN BERNARDINO COUNTY MOUNTAINS


CITY           SKY/WX    TMP DP  RH WIND       PRES   REMARKS
*BIG BEAR AIRP CLEAR     43  25  49 E6        30.07R
MT WILSON NWS    N/A     43  43 100 SW1         N/A
SANDBERG       HAZE      44  39  82 N24G31    30.07R VSB 1/4 WCI  35
*WARM SPRINGS    N/A     51  36  57 W18         N/A

$$

CAZ028-029-059-060-099-220100-
ANTELOPE VALLEY AND SURROUNDING AREAS


CITY           SKY/WX    TMP DP  RH WIND       PRES   REMARKS
LANCASTER      CLEAR     57  37  47 W21       30.02R
PALMDALE       CLEAR     59  37  44 NW18      30.01R
*POPPY PARK      N/A     52  41  66 W23G35      N/A

CITY           SKY/WX    TMP DP  RH WIND       PRES   REMARKS
29 PALMS       PTCLDY    66  34  30 NW8       30.01S
BARSTOW/DAGGET CLEAR     67  33  28 CALM      29.96S
BISHOP         CLEAR     61  15  16 CALM      29.98R
CHINA LAKE     CLEAR     67  25  20 E7        29.96S
EDWARDS AFB    PTCLDY    61  36  38 W18       29.98R
MOJAVE         FAIR      54  37  54 W20G25    30.01R
NEEDLES        CLEAR     74  19  12 CALM      29.90S
VICTORVILLE      N/A     63  30  29 NW3       30.00R

$$

CAZ039-040-220100-
VENTURA AND SANTA BARBARA COUNTY COAST


CITY           SKY/WX    TMP DP  RH WIND       PRES   REMARKS
CAMARILLO      CLEAR     68  51  54 W9        29.95R
NWS OXNARD       N/A     68  53  58 CALM      29.95R
OXNARD AIRPORT CLEAR     68  55  63 W16       29.95R
*POINT MUGU    PTCLDY    70  56  61 W10       29.96R
SBA APT/GOLETA PTCLDY    75  38  26 SW3       29.93S
*SANTA BARBARA   N/A     75  37  24 CALM      30.02R
*VENTURA         N/A     67  51  55 SW7       29.99S

$$

CAZ044-045-220100-
VENTURA COUNTY VALLEYS


CITY           SKY/WX    TMP DP  RH WIND       PRES   REMARKS
*SIMI VALLEY     N/A     68  46  44 W3        29.93R
*OJAI            N/A     68  47  47 CALM      29.92R
*FILLMORE        N/A     69  49  49 CALM      29.84R

$$

CAZ053-220100-
VENTURA COUNTY MOUNTAINS


CITY           SKY/WX    TMP DP  RH WIND       PRES   REMARKS
*LOCKWOOD VLY    N/A     45  37  76 MISG        N/A

$$

CAZ034-035-036-220100-
CENTRAL COAST AND SANTA YNEZ VALLEY


CITY           SKY/WX    TMP DP  RH WIND       PRES   REMARKS
SAN LUIS OBISP PTCLDY    63  52  67 NW13      30.05R
SANTA MARIA    CLEAR     65  52  62 NW14      30.03S

CITY           SKY/WX    TMP DP  RH WIND       PRES   REMARKS
*CAL POLY SLO    N/A     66  46  48 NE8G18      N/A
*LOMPOC        CLEAR     64  48  55 NW15G21   30.04R
*PISMO BEACH     N/A     67  49  53 N6        30.05R
*SANTA YNEZ    FAIR      68  37  32 NW12G18   29.99R

$$

CAZ037-038-051-220100-
SAN LUIS OBISPO COUNTY INTERIOR AND CUYAMA VALLEY


CITY           SKY/WX    TMP DP  RH WIND       PRES   REMARKS
*CUYAMA          N/A     53  42  68 E3        30.07R
PASO ROBLES    PTCLDY    63  45  51 E12       30.07S

$$

CAZ032-033-061-220100-
SOUTHERN DESERTS


CITY           SKY/WX    TMP DP  RH WIND       PRES   REMARKS
BLYTHE         CLEAR     74  33  22 NE3       29.89R
IMPERIAL       CLEAR     72  43  35 NW6       29.89R
PALM SPRINGS   CLEAR     70  38  31 CALM      29.92R
THERMAL        CLEAR     76  38  25 NW7       29.87R

$$

ELSEWHERE ACROSS THE WESTERN UNITED STATES AND MEXICO


CITY           SKY/WX    TMP DP  RH WIND       PRES   REMARKS
DENVER, CO     PTCLDY    46  26  45 E8        29.94R
GRAND CANYON,  PTCLDY    47  18  31 N7        30.04R
HONOLULU, HI   MOSUNNY   84  70  61 NE15      29.97F
KAHULUI, MAUI  MOSUNNY   82  70  65 E23G38    29.97F
LAKE TAHOE, CA CLOUDY    47  29  49 S8        30.07R
LAS VEGAS, NV  CLEAR     67  28  23 S6        29.91S
MAMMOTH LAKES, CLOUDY    48  14  25 E3        30.06R
MEXICO CITY, M MOCLDY    64  46  52 N3        30.27R
PHOENIX, AZ    MOCLDY    70  26  19 CALM      29.87R
PORTLAND, OR   LGT RAIN  44  44 100 E16       29.50F
RENO, NV       CLOUDY    53  33  46 SW5       30.03R
SALT LAKE CITY PTCLDY    44  27  51 W7        30.00R
SAN DIEGO, CA  PTCLDY    67  53  61 NW7       29.97S
SAN FRANCISCO, CLOUDY    61  55  81 NW5       30.09S
SAN JOSE, CA   CLOUDY    62  46  55 NW8       30.09R
SEATTLE, WA    LGT RAIN  48  45  87 E8        29.35F FOG
TIJUANA, MEX     N/A    N/A N/A N/A MISG        N/A

$$

STATION/POSITION TIME  TEMP    WIND        PRES    VSBY  WAVE
                       AIR SEA DIR/SP/G                  HT/PER
                 (UTC) (F)     (DEG/KT/KT) (MB)    (MI)  (FT/S)
POINT ARGUELLO B NOT AVBL
WEST SANTA BARBA 0000   62 63  320/ 23/ 29 1015.2R         6/10
POINT CONCEPTION NOT AVBL
EAST SANTA BARBA 2300          290/ 17       N/A
SANTA MONICA BAY 0000   66 66  290/ 10/ 12 1014.7R         5/ 7


USA.gov is the U.S. government's official web portal to all federal, state and local government web resources and services.